User: anonymous   Login
Location: Cluny
(50.9333°N, 112.8167°W)
Time: 20:46:49
(UTC-06:00)
Language:

Cosmos 1743 Rocket - Orbit

View from above orbital plane
View from above orbital plane
View from above satellite
View from above satellite

Ground track
Ground track

The orbit data is extracted from the following two-line orbital elements,

1 16720U 86034B   14297.47113584  .00000698  00000-0  83040-4 0  5935
2 16720 082.5558 062.5659 0021316 053.5433 014.7788 14.82835165535977
Epoch (UTC): 24 October 2014 11:18:26
Eccentricity: 0.0021316
inclination: 82.5558°
perigee height: 605 km
apogee height: 635 km
right ascension of ascending node: 62.5659°
argument of perigee: 53.5433°
revolutions per day: 14.82835165
mean anomaly at epoch: 14.7788°
orbit number at epoch: 53597

The dashed part of the orbit path shows where the satellite is in the earth's shadow,  

DLR